Regional Weather Roundup
Issued by NWS Sioux Falls, SD

Home | Current Version | Previous Version | Graphics & Text | Print | Product List | Glossary Off
Versions: 1 2 3 4 5 6 7 8 9 10 11 12 13 14 15 16 17 18 19 20 21 22 23 24 25 26 27 28 29 30 31 32 33 34 35 36 37 38 39 40 41 42 43 44 45 46 47 48 49 50

386
ASUS43 KFSD 291102
RWRFSD

WEATHER ROUNDUP FOR SE SOUTH DAKOTA/SW MINNESOTA/NW IOWA
NATIONAL WEATHER SERVICE SIOUX FALLS SD
600 AM CDT FRI JUL 29 2016

NOTE: "FAIR" INDICATES FEW OR NO CLOUDS BELOW 12,000 FEET WITH NO
SIGNIFICANT WEATHER AND OR OBSTRUCTIONS TO VISIBILITY.


SDZ038>040-050-052>070-291200-
SOUTHEAST SOUTH DAKOTA

CITY           SKY/WX    TMP DP  RH WIND       PRES   REMARKS
BROOKINGS      CLEAR     52  51  97 N5        30.08S
CHAMBERLAIN    CLOUDY    65  65 100 CALM      30.09S
HURON          CLEAR     56  54  93 CALM      30.08S
MADISON        FAIR      54  54 100 N3        30.08F
MITCHELL       PTCLDY    58  56  93 W3        30.08F
SIOUX FALLS    CLOUDY    56  53  90 CALM      30.07R
WINNER         CLOUDY    64  62  93 CALM      30.10S FOG
YANKTON        PTCLDY    59  54  82 NW6       30.06R
$$

MNZ071-072-080-081-089-090-097-098-291200-
SOUTHWEST MINNESOTA

CITY           SKY/WX    TMP DP  RH WIND       PRES   REMARKS
FAIRMONT       CLEAR     61  55  82 N6        30.02S
JACKSON        CLEAR     57  54  88 N3        30.06R
LUVERNE        CLEAR     54  52  94 CALM      30.07S
MARSHALL       CLEAR     53  51  93 NW5       30.08S
MONTEVIDEO     CLEAR     54  52  94 CALM      30.09S
REDWOOD FALLS  PTCLDY    58  55  90 N3        30.07S
TRACY          CLEAR     57  55  94 NW5       30.08S
WINDOM         PTCLDY    61  57  88 N6        30.05S
WORTHINGTON    CLEAR     56  54  93 NW6       30.07R
$$

IAZ001>003-012>014-020>022-031-032-NEZ013-014-SDZ071-291200-
NORTHWEST IOWA

CITY           SKY/WX    TMP DP  RH WIND       PRES   REMARKS
CHEROKEE       PTCLDY    60  60 100 N3        30.04R
DENISON        PTCLDY    61  61 100 CALM      30.00S
ESTHERVILLE    MOCLDY    59  58  96 N6        30.03S
LE MARS        CLOUDY    59  57  94 N6        30.06R
SHELDON        PTCLDY    55  55 100 N5        30.04S
SIOUX CITY     PTCLDY    62  59  90 N6        30.03R
SPENCER        PTCLDY    59  56  89 N7        30.04S
STORM LAKE     MOCLDY    61  61 100 N6        30.04R FOG
$$

ABBREVIATIONS USED IN REMARKS
   TC - TEMPERATURE IN CELSIUS
  WCI - WIND CHILL INDEX
   HX - HEAT INDEX
  VSB - VISIBILITY





USA.gov is the U.S. government's official web portal to all federal, state and local government web resources and services.